Location: Baia Mare
(47.6567°N, 23.5850°E)
Time: 19:28:16
(UTC+03:00)

Envisat - Pass Details

Date: 25 January 2022
Orbit: 764 x 765 km, 98.2° (Epoch: 19 May)

Event Time Altitude Azimuth Distance (km) Brightness Sun altitude
Rises 05:13:12 0° 15° (NNE) 3,242 6.5 -28.1°
Reaches altitude 10° 05:15:33 10° 19° (NNE) 2,311 5.7 -27.7°
Maximum altitude 05:20:37 67° 102° (ESE) 830 3.2 -26.8°
Drops below altitude 10° 05:25:39 10° 185° (S) 2,295 5.4 -26.0°
Sets 05:27:58 0° 188° (S) 3,217 6.2 -25.6°
